Location: *
(46.0770°N, 1.6444°E)
Time: 07:30:11
(UTC+00:00)

Cosmos 2237 Rocket - Pass Details

Date: 16 September 2019
Orbit: 833 x 851 km, 71.0° (Epoch: 15 October)

Event Time Altitude Azimuth Distance (km) Brightness Sun altitude
Rises 18:27:10 0° 340° (NNW) 3,423 5.8 -4.9°
Reaches altitude 10° 18:30:20 10° 358° (N) 2,486 4.8 -5.4°
Maximum altitude 18:34:27 20° 44° (NE) 1,879 3.7 -6.1°
Drops below altitude 10° 18:38:33 10° 90° (E) 2,481 4.0 -6.8°
Enters shadow 18:39:08 - 94° (E) 2,641 4.1 -6.9°
